This demonstration page uses our WeatherBlox Daily Observations layout. Learn more.

Left ArrowRight Arrow

41.55636, -103.73856

Hourly Observations for February 12, 2016

Temp ( °F °C ) Dew Point ( °F °C ) Humidity (%) Winds ( mph kmh ) Pressure ( in mb ) Visibility ( mi km ) Precip ( " mm )
12:53 am 00:53 Clear 31 -0.6 26 -3.3 82 82 NNW 6 9 30.24 1024 10 16.0934 N/A
1:53 am 01:53 Clear 30 -1.1 26 -3.3 85 85 NNW 6 9 30.25 1024 10 16.0934 N/A
2:53 am 02:53 Clear 30 -1.1 26 -3.3 85 85 NW 6 9 30.27 1025 10 16.0934 N/A
3:53 am 03:53 Clear 30 -1.1 26 -3.3 85 85 NW 6 9 30.28 1025 10 16.0934 N/A
4:53 am 04:53 Clear 30 -1.1 26 -3.3 85 85 NNW 7 11 30.29 1026 10 16.0934 N/A
5:53 am 05:53 Mostly Cloudy 31 -0.6 27 -2.8 85 85 NW 5 7 30.34 1027 10 16.0934 N/A
6:53 am 06:53 Cloudy 32 undefined 28 -2.2 85 85 N N/A 30.34 1028 10 16.0934 N/A
7:53 am 07:53 Cloudy 33 0.6 29 -1.7 85 85 W 3 6 30.37 1029 10 16.0934 N/A
8:53 am 08:53 Cloudy 36 2.2 30 -1.1 79 79 NE 7 11 30.41 1030 10 16.0934 N/A
9:53 am 09:53 Partly Cloudy 35 1.7 29 -1.7 78 78 ENE 15 24 30.43 1031 10 16.0934 N/A
10:53 am 10:53 Cloudy 35 1.7 29 -1.7 78 78 E 14 22 30.44 1031 10 16.0934 N/A
11:53 am 11:53 Cloudy 36 2.2 29 -1.7 76 76 E 10 17 30.44 1031 10 16.0934 N/A
12:53 pm 12:53 Mostly Cloudy 38 3.3 30 -1.1 73 73 ESE 12 19 30.39 1029 10 16.0934 N/A
1:53 pm 13:53 Cloudy 38 3.3 31 -0.6 76 76 ESE 15 24 30.38 1029 10 16.0934 N/A
2:53 pm 14:53 Cloudy 37 2.8 31 -0.6 79 79 ESE 18 30 30.35 1028 10 16.0934 N/A
3:53 pm 15:53 Cloudy 36 2.2 31 -0.6 82 82 ESE 18 30 30.36 1028 10 16.0934 N/A
4:53 pm 16:53 Cloudy 35 1.7 31 -0.6 85 85 ESE 15 24 30.36 1028 10 16.0934 N/A
5:20 pm 17:20 Cloudy 36 2 30 -1 81 81 ESE 16 26 30.39 1029 10 16.0934 N/A
5:53 pm 17:53 Cloudy 34 1.1 30 -1.1 85 85 SE 15 24 30.37 1029 10 16.0934 N/A
6:53 pm 18:53 Cloudy 33 0.6 30 -1.1 89 89 SE 17 28 30.36 1028 10 16.0934 N/A
7:53 pm 19:53 Cloudy 33 0.6 30 -1.1 89 89 SE 15 24 30.35 1028 10 16.0934 N/A
8:22 pm 20:22 Cloudy 34 1 30 -1 87 87 SE 14 22 30.36 1028 7 11.26538 N/A
8:53 pm 20:53 Cloudy 32 undefined 30 -1.1 92 92 SE 13 20 30.33 1027 7 11.26538 N/A
9:35 pm 21:35 Cloudy 33 0.6 30 -1.1 89 89 SE 15 24 30.36 1028 7 11.26538 N/A
9:53 pm 21:53 Cloudy 33 0.6 30 -1.1 89 89 SE 12 19 30.32 1027 8 12.87472 N/A
10:53 pm 22:53 Cloudy 33 0.6 30 -1.1 89 89 SE 10 17 30.3 1026 10 16.0934 N/A
11:53 pm 23:53 Cloudy 33 0.6 30 -1.1 89 89 SSE 10 17 30.27 1025 10 16.0934 N/A

Powered by AerisWeather